Regional Weather Roundup
Issued by NWS Spokane, WA

Home | Current Version | Previous Version | Text Only | Print | Product List | Glossary On
Versions: 1 2 3 4 5 6 7 8 9 10 11 12 13 14 15 16 17 18 19 20 21 22 23 24 25 26 27 28 29 30 31 32 33 34 35 36 37 38 39 40 41 42 43 44 45 46 47 48 49 50
000
NZUS01 KOTX 251810
RWROTX
EASTERN WASHINGTON/NORTHERN IDAHO ROUNDUP
NATIONAL WEATHER SERVICE, SPOKANE WA
1100 AM PDT SAT OCT 25 2014

Note: "fair" indicated few or no clouds below 12,000 feet with no
significant weather and/or obstructions to visibility.

...NORTHEAST WASHINGTON AND NORTHERN IDAHO PANHANDLE...

CITY           SKY/WX    TMP DP  RH WIND       PRES   REMARKS
SPOKANE INTL   PTSUNNY   51  42  71 E13G20    29.64F
SPOKANE DOWNTO PTSUNNY   54  42  64 SE12      29.64F
COEUR D ALENE  CLOUDY    52  41  66 NE14      29.67F
DEER PARK      MOSUNNY   55  41  59 N13       29.64F
SANDPOINT      CLOUDY    48  39  71 NE14G21   29.71F

...SOUTHEAST WASHINGTON AND SOUTHERN IDAHO PANHANDLE...

CITY           SKY/WX    TMP DP  RH WIND       PRES   REMARKS
WALLA WALLA    FOG       50  49  96 W6        29.60R VSB 1/2
PULLMAN/MOSCOW CLOUDY    53  43  68 E13       29.67F
LEWISTON       CLOUDY    53  47  79 E10       29.65F
LOWELL           N/A     48  46  93 N3        29.80F

...COLUMBIA BASIN...

CITY           SKY/WX    TMP DP  RH WIND       PRES   REMARKS
EPHRATA        PTSUNNY   54  45  71 N8        29.59F
MOSES LAKE     CLOUDY    54  45  71 E5        29.60F
TRI CITIES     CLOUDY    51  49  92 CALM      29.62F
HERMISTON      CLOUDY    53  48  83 CALM      29.60F
PENDLETON      CLOUDY    49  48  97 NW15      29.59R FOG

...EAST SLOPES CASCADES...

CITY           SKY/WX    TMP DP  RH WIND       PRES   REMARKS
THE DALLES     CLOUDY    54  49  83 E7        29.59F
YAKIMA         CLOUDY    55  47  74 N7        29.60F
ELLENSBURG     CLOUDY    51  44  77 CALM      29.62S
WENATCHEE      CLOUDY    49  44  83 NW6       29.61F
OMAK           CLOUDY    46  44  93 CALM      29.63F

...SOUTHERN BRITISH COLUMBIA...

CITY           SKY/WX    TMP DP  RH WIND       PRES   REMARKS
PENTICTON      CLOUDY    46  43  87 NW3       29.63F
CASTLEGAR      MOSUNNY   50  41  71 N7        29.70F

...WESTERN MONTANA...

CITY           SKY/WX    TMP DP  RH WIND       PRES   REMARKS
MISSOULA       CLOUDY    47  44  90 S6        29.86F

...NEIGHBORING CITIES...

CITY           SKY/WX    TMP DP  RH WIND       PRES   REMARKS
SEATTLE        CLOUDY    57  51  80 NW5       29.45F
CALGARY        PTSUNNY   41  25  52 SE10G17   29.85F



USA.gov is the U.S. government's official web portal to all federal, state and local government web resources and services.